Regional Weather Roundup
Issued by NWS Goodland, KS

Home | Current Version | Previous Version | Text Only | Print | Product List | Glossary On
Versions: 1 2 3 4 5 6 7 8 9 10 11 12 13 14 15 16 17 18 19 20 21 22 23 24 25 26 27 28 29 30 31 32 33 34 35 36 37 38 39 40 41 42 43 44 45 46 47 48 49 50
000
ASUS43 KGLD 170359
RWRGLD

GOODLAND FORECAST AREA HOURLY WEATHER ROUNDUP
NATIONAL WEATHER SERVICE GOODLAND KS
1000 PM MDT WED APR 16 2014

...OFFICIAL OBSERVATIONS...

CITY           SKY/WX    TMP DP  RH WIND       PRES   REMARKS
GOODLAND KS    CLOUDY    43  34  70 NE8       30.12R
HILL CITY KS   CLOUDY    46  32  58 NE12      30.12R
IMPERIAL NEB   MOCLDY    35  30  82 NE6       30.14R
MCCOOK NEB     PTCLDY    37  30  75 N14       30.15R
AKRON CO       CLOUDY    36  30  79 E7        30.10R
BURLINGTON CO  CLOUDY    42  32  67 E8        30.11R
LIMON CO       CLOUDY    37  30  75 SE5       30.11R
$$

...UNOFFICIAL OBSERVATIONS...

CITY           SKY/WX    TMP DP  RH WIND       PRES   REMARKS
COLBY KS       CLEAR     45  37  76 NE14      30.11R
GOVE KS          N/A     49  32  52 NE5         N/A
LENORA KS        N/A     42  32  68 N12         N/A
LEOTI KS         N/A     49  32  51 E7          N/A
NORTON KS      CLEAR     36  28  75 N14G20    30.12R
SHARON SPRINGS   N/A     46  33  61 E7          N/A
WAKEENEY KS      N/A     48  30  50 MISG        N/A
KIT CARSON CO    N/A     45  31  58 MISG        N/A
$$



USA.gov is the U.S. government's official web portal to all federal, state and local government web resources and services.